Year,Month,Day,Hour,Minute,Value (Times are PST for temperature in C)
2012,06,14,07,36,8.90
2012,06,14,07,37,8.90
2012,06,14,07,38,9.00
2012,06,14,07,39,9.00
2012,06,14,07,40,9.00
2012,06,14,07,41,9.00
2012,06,14,07,42,8.90
2012,06,14,07,43,9.00
2012,06,14,07,44,9.00
2012,06,14,07,45,9.00
2012,06,14,07,46,9.00
2012,06,14,07,47,9.00
2012,06,14,07,48,9.00
2012,06,14,07,49,9.10
2012,06,14,07,50,9.10
2012,06,14,07,51,9.10
2012,06,14,07,52,9.10
2012,06,14,07,53,9.10
2012,06,14,07,54,9.10
2012,06,14,07,55,9.10
2012,06,14,07,56,9.10
2012,06,14,07,57,9.10
2012,06,14,07,58,9.10
2012,06,14,07,59,9.20
2012,06,14,08,00,9.20
2012,06,14,08,01,9.20
2012,06,14,08,02,9.20
2012,06,14,08,03,9.20
2012,06,14,08,04,9.20
2012,06,14,08,05,9.20
2012,06,14,08,06,9.20
2012,06,14,08,07,9.20
2012,06,14,08,08,9.20
2012,06,14,08,09,9.20
2012,06,14,08,10,9.20
2012,06,14,08,11,9.20
2012,06,14,08,12,9.20
2012,06,14,08,13,9.20
2012,06,14,08,14,9.20
2012,06,14,08,15,9.20
2012,06,14,08,16,9.30
2012,06,14,08,17,9.30
2012,06,14,08,18,9.30
2012,06,14,08,19,9.20
2012,06,14,08,20,9.30
2012,06,14,08,21,9.30
2012,06,14,08,22,9.30
2012,06,14,08,23,9.30
2012,06,14,08,24,9.30
2012,06,14,08,25,9.30
2012,06,14,08,26,9.40
2012,06,14,08,27,9.40
2012,06,14,08,28,9.40
2012,06,14,08,29,9.40
2012,06,14,08,30,9.50
2012,06,14,08,31,9.50
2012,06,14,08,32,9.60
2012,06,14,08,33,9.60
2012,06,14,08,34,9.60
2012,06,14,08,35,9.60
2012,06,14,08,36,9.60
2012,06,14,08,37,9.60
2012,06,14,08,38,9.60
2012,06,14,08,39,9.70
2012,06,14,08,40,9.70
2012,06,14,08,41,9.70
2012,06,14,08,42,9.80
2012,06,14,08,43,9.80
2012,06,14,08,44,9.90
2012,06,14,08,45,9.90
2012,06,14,08,46,9.90
2012,06,14,08,47,9.90
2012,06,14,08,48,9.90
2012,06,14,08,49,10.00
2012,06,14,08,50,10.00
2012,06,14,08,51,10.10
2012,06,14,08,52,10.10
2012,06,14,08,53,10.10
2012,06,14,08,54,10.10
2012,06,14,08,55,10.20
2012,06,14,08,56,10.20
2012,06,14,08,57,10.30
2012,06,14,08,58,10.30
2012,06,14,08,59,10.40
2012,06,14,09,00,10.40
2012,06,14,09,01,10.40
2012,06,14,09,02,10.40
2012,06,14,09,03,10.40
2012,06,14,09,04,10.30
2012,06,14,09,05,10.30
2012,06,14,09,06,10.30
2012,06,14,09,07,10.30
2012,06,14,09,08,10.30
2012,06,14,09,09,10.20
2012,06,14,09,10,10.20
2012,06,14,09,11,10.20
2012,06,14,09,12,10.20
2012,06,14,09,13,10.10
2012,06,14,09,14,10.10
2012,06,14,09,15,10.10
2012,06,14,09,16,10.00
2012,06,14,09,17,9.90
2012,06,14,09,18,9.90
2012,06,14,09,19,9.90
2012,06,14,09,20,9.90
2012,06,14,09,21,9.90
2012,06,14,09,22,9.90
2012,06,14,09,23,9.90
2012,06,14,09,24,9.90
2012,06,14,09,25,9.90
2012,06,14,09,26,9.90
2012,06,14,09,27,9.90
2012,06,14,09,28,9.90
2012,06,14,09,29,9.90
2012,06,14,09,30,9.90
2012,06,14,09,31,9.80
2012,06,14,09,32,9.80
2012,06,14,09,33,9.80
2012,06,14,09,34,9.80
2012,06,14,09,35,9.80
2012,06,14,09,36,9.80
2012,06,14,09,37,9.80
2012,06,14,09,38,9.90
2012,06,14,09,39,9.80
2012,06,14,09,40,9.80
2012,06,14,09,41,9.80
2012,06,14,09,42,9.90
2012,06,14,09,43,9.90
2012,06,14,09,44,9.90
2012,06,14,09,45,9.90
2012,06,14,09,46,9.90
2012,06,14,09,47,9.90
2012,06,14,09,48,9.90
2012,06,14,09,49,9.90
2012,06,14,09,50,9.90
2012,06,14,09,51,10.00
2012,06,14,09,52,10.10
2012,06,14,09,53,10.10
2012,06,14,09,54,10.10
2012,06,14,09,55,10.10
2012,06,14,09,56,10.20
2012,06,14,09,57,10.20
2012,06,14,09,58,10.20
2012,06,14,09,59,10.30
2012,06,14,10,00,10.30
2012,06,14,10,01,10.40
2012,06,14,10,02,10.40
2012,06,14,10,03,10.30
2012,06,14,10,04,10.30
2012,06,14,10,05,10.20
2012,06,14,10,06,10.20
2012,06,14,10,07,10.20
2012,06,14,10,08,10.20
2012,06,14,10,09,10.20
2012,06,14,10,10,10.20
2012,06,14,10,11,10.20
2012,06,14,10,12,10.30
2012,06,14,10,13,10.30
2012,06,14,10,14,10.30
2012,06,14,10,15,10.30
2012,06,14,10,16,10.40
2012,06,14,10,17,10.40
2012,06,14,10,18,10.40
2012,06,14,10,19,10.40
2012,06,14,10,20,10.40
2012,06,14,10,21,10.60
2012,06,14,10,22,10.60
2012,06,14,10,23,10.60
2012,06,14,10,24,10.60
2012,06,14,10,25,10.60
2012,06,14,10,26,10.60
2012,06,14,10,27,10.70
2012,06,14,10,28,10.70
2012,06,14,10,29,10.70
2012,06,14,10,30,10.60
2012,06,14,10,31,10.60
2012,06,14,10,32,10.60
2012,06,14,10,33,10.60
2012,06,14,10,34,10.60
2012,06,14,10,35,10.60
2012,06,14,10,36,10.70
2012,06,14,10,37,10.80
2012,06,14,10,38,10.90
2012,06,14,10,39,11.00
2012,06,14,10,40,11.10
2012,06,14,10,41,11.10
2012,06,14,10,42,11.10
2012,06,14,10,43,11.10
2012,06,14,10,44,11.10
2012,06,14,10,45,11.10
2012,06,14,10,46,11.20
2012,06,14,10,47,11.20
2012,06,14,10,48,11.20
2012,06,14,10,49,11.30
2012,06,14,10,50,11.30
2012,06,14,10,51,11.30
2012,06,14,10,52,11.30
2012,06,14,10,53,11.30
2012,06,14,10,54,11.30
2012,06,14,10,55,11.30
2012,06,14,10,56,11.30
2012,06,14,10,57,11.30
2012,06,14,10,58,11.30
2012,06,14,10,59,11.30
2012,06,14,11,00,11.30
2012,06,14,11,01,11.40
2012,06,14,11,02,11.50
2012,06,14,11,03,11.60
2012,06,14,11,04,11.60
2012,06,14,11,05,11.50
2012,06,14,11,06,11.40
2012,06,14,11,07,11.40
2012,06,14,11,08,11.50
2012,06,14,11,09,11.60
2012,06,14,11,10,11.60
2012,06,14,11,11,11.60
2012,06,14,11,12,11.60
2012,06,14,11,13,11.60
2012,06,14,11,14,11.60
2012,06,14,11,15,11.60
2012,06,14,11,16,11.60
2012,06,14,11,17,11.60
2012,06,14,11,18,11.60
2012,06,14,11,19,11.60
2012,06,14,11,20,11.60
2012,06,14,11,21,11.60
2012,06,14,11,22,11.60
2012,06,14,11,23,11.60
2012,06,14,11,24,11.60
2012,06,14,11,25,11.60
2012,06,14,11,26,11.50
2012,06,14,11,27,11.40
2012,06,14,11,28,11.40
2012,06,14,11,29,11.40
2012,06,14,11,30,11.40
2012,06,14,11,31,11.40
2012,06,14,11,32,11.40
2012,06,14,11,33,11.40
2012,06,14,11,34,11.40
2012,06,14,11,35,11.50
2012,06,14,11,36,11.60
2012,06,14,11,37,11.60
2012,06,14,11,38,11.60
2012,06,14,11,39,11.60
2012,06,14,11,40,11.60
2012,06,14,11,41,11.70
2012,06,14,11,42,11.80
2012,06,14,11,43,11.90
2012,06,14,11,44,11.90
2012,06,14,11,45,12.00
2012,06,14,11,46,12.00
2012,06,14,11,47,12.10
2012,06,14,11,48,12.20
2012,06,14,11,49,12.20
2012,06,14,11,50,12.20
2012,06,14,11,51,12.30
2012,06,14,11,52,12.30
2012,06,14,11,53,12.40
2012,06,14,11,54,12.40
2012,06,14,11,55,12.50
2012,06,14,11,56,12.50
2012,06,14,11,57,12.60
2012,06,14,11,58,12.70
2012,06,14,11,59,12.80
2012,06,14,12,00,12.80
2012,06,14,12,01,12.80
2012,06,14,12,02,12.90
2012,06,14,12,03,12.90
2012,06,14,12,04,12.80
2012,06,14,12,05,12.80
2012,06,14,12,06,12.80
2012,06,14,12,07,12.80
2012,06,14,12,08,12.70
2012,06,14,12,09,12.60
2012,06,14,12,10,12.50
2012,06,14,12,11,12.50
2012,06,14,12,12,12.50
2012,06,14,12,13,12.50
2012,06,14,12,14,12.50
2012,06,14,12,15,12.50
2012,06,14,12,16,12.60
2012,06,14,12,17,12.50
2012,06,14,12,18,12.40
2012,06,14,12,19,12.30
2012,06,14,12,20,12.40
2012,06,14,12,21,12.50
2012,06,14,12,22,12.50
2012,06,14,12,23,12.50
2012,06,14,12,24,12.50
2012,06,14,12,25,12.50
2012,06,14,12,26,12.50
2012,06,14,12,27,12.60
2012,06,14,12,28,12.60
2012,06,14,12,29,12.70
2012,06,14,12,30,12.60
2012,06,14,12,31,12.60
2012,06,14,12,32,12.70
2012,06,14,12,33,12.80
2012,06,14,12,34,12.90
2012,06,14,12,35,12.90
2012,06,14,12,36,12.80
2012,06,14,12,37,12.80
2012,06,14,12,38,12.80
2012,06,14,12,39,12.80
2012,06,14,12,40,13.00
2012,06,14,12,41,13.10
2012,06,14,12,42,13.10
2012,06,14,12,43,13.10
2012,06,14,12,44,13.10
2012,06,14,12,45,13.20
2012,06,14,12,46,13.20
2012,06,14,12,47,13.20
2012,06,14,12,48,13.20
2012,06,14,12,49,13.20
2012,06,14,12,50,13.30
2012,06,14,12,51,13.30
2012,06,14,12,52,13.30
2012,06,14,12,53,13.30
2012,06,14,12,54,13.30
2012,06,14,12,55,13.30
2012,06,14,12,56,13.30
2012,06,14,12,57,13.30
2012,06,14,12,58,13.50
2012,06,14,12,59,13.50
2012,06,14,13,00,13.50
2012,06,14,13,01,13.50
2012,06,14,13,02,13.50
2012,06,14,13,03,13.50
2012,06,14,13,04,13.50
2012,06,14,13,05,13.40
2012,06,14,13,06,13.40
2012,06,14,13,07,13.40
2012,06,14,13,08,13.40
2012,06,14,13,09,13.40
2012,06,14,13,10,13.40
2012,06,14,13,11,13.40
2012,06,14,13,12,13.50
2012,06,14,13,13,13.50
2012,06,14,13,14,13.60
2012,06,14,13,15,13.60
2012,06,14,13,16,13.70
2012,06,14,13,17,13.70
2012,06,14,13,18,13.60
2012,06,14,13,19,13.50
2012,06,14,13,20,13.60
2012,06,14,13,21,13.70
2012,06,14,13,22,13.60
2012,06,14,13,23,13.50
2012,06,14,13,24,13.50
2012,06,14,13,25,13.50
2012,06,14,13,26,13.60
2012,06,14,13,27,13.60
2012,06,14,13,28,13.60
2012,06,14,13,29,13.60
2012,06,14,13,30,13.70
2012,06,14,13,31,13.70
2012,06,14,13,32,13.70
2012,06,14,13,33,13.70
2012,06,14,13,34,13.60
2012,06,14,13,35,13.50
2012,06,14,13,36,13.40
2012,06,14,13,37,13.40
2012,06,14,13,38,13.40
2012,06,14,13,39,13.50
2012,06,14,13,40,13.60
2012,06,14,13,41,13.80
2012,06,14,13,42,13.90
2012,06,14,13,43,13.90
2012,06,14,13,44,14.10
2012,06,14,13,45,14.20
2012,06,14,13,46,14.20
2012,06,14,13,47,14.20
2012,06,14,13,48,14.20
2012,06,14,13,49,14.30
2012,06,14,13,50,14.50
2012,06,14,13,51,14.50
2012,06,14,13,52,14.60
2012,06,14,13,53,14.60
2012,06,14,13,54,14.60
2012,06,14,13,55,14.40
2012,06,14,13,56,14.20
2012,06,14,13,57,14.10
2012,06,14,13,58,14.00
2012,06,14,13,59,13.90
2012,06,14,14,00,13.90
2012,06,14,14,01,13.80
2012,06,14,14,02,13.70
2012,06,14,14,03,13.70
2012,06,14,14,04,13.90
2012,06,14,14,05,13.90
2012,06,14,14,06,13.90
2012,06,14,14,07,13.80
2012,06,14,14,08,13.80
2012,06,14,14,09,13.90
2012,06,14,14,10,13.90
2012,06,14,14,11,13.80
2012,06,14,14,12,13.70
2012,06,14,14,13,13.60
2012,06,14,14,14,13.50
2012,06,14,14,15,13.40
2012,06,14,14,16,13.40
2012,06,14,14,17,13.40
2012,06,14,14,18,13.40
2012,06,14,14,19,13.30
2012,06,14,14,20,13.30
2012,06,14,14,21,13.30
2012,06,14,14,22,13.30
2012,06,14,14,23,13.40
2012,06,14,14,24,13.50
2012,06,14,14,25,13.60
2012,06,14,14,26,13.60
2012,06,14,14,27,13.60
2012,06,14,14,28,13.60
2012,06,14,14,29,13.70
2012,06,14,14,30,13.70
2012,06,14,14,31,13.70
2012,06,14,14,32,13.70
2012,06,14,14,33,13.70
2012,06,14,14,34,13.70
2012,06,14,14,35,13.80
2012,06,14,14,36,14.00
2012,06,14,14,37,14.20
2012,06,14,14,38,14.20
2012,06,14,14,39,14.20
2012,06,14,14,40,14.20
2012,06,14,14,41,14.20
2012,06,14,14,42,14.20
2012,06,14,14,43,14.10
2012,06,14,14,44,13.90
2012,06,14,14,45,13.80
2012,06,14,14,46,13.70
2012,06,14,14,47,13.60
2012,06,14,14,48,13.60
2012,06,14,14,49,13.60
2012,06,14,14,50,13.60
2012,06,14,14,51,13.60
2012,06,14,14,52,13.60
2012,06,14,14,53,13.60
2012,06,14,14,54,13.60
2012,06,14,14,55,13.70
2012,06,14,14,56,13.70
2012,06,14,14,57,13.80
2012,06,14,14,58,13.80
2012,06,14,14,59,13.90
2012,06,14,15,00,13.90
2012,06,14,15,01,13.80
2012,06,14,15,02,13.70
2012,06,14,15,03,13.70
2012,06,14,15,04,13.70
2012,06,14,15,05,13.70
2012,06,14,15,06,13.60
2012,06,14,15,07,13.50
2012,06,14,15,08,13.50
2012,06,14,15,09,13.60
2012,06,14,15,10,13.60
2012,06,14,15,11,13.60
2012,06,14,15,12,13.60
2012,06,14,15,13,13.50
2012,06,14,15,14,13.50
2012,06,14,15,15,13.40
2012,06,14,15,16,13.30
2012,06,14,15,17,13.30
2012,06,14,15,18,13.30
2012,06,14,15,19,13.30
2012,06,14,15,20,13.30
2012,06,14,15,21,13.40
2012,06,14,15,22,13.40
2012,06,14,15,23,13.50
2012,06,14,15,24,13.50
2012,06,14,15,25,13.60
2012,06,14,15,26,13.50
2012,06,14,15,27,13.60
2012,06,14,15,28,13.60
2012,06,14,15,29,13.60
2012,06,14,15,30,13.70
2012,06,14,15,31,13.70
2012,06,14,15,32,13.70
2012,06,14,15,33,13.70
2012,06,14,15,34,13.70
2012,06,14,15,35,13.70
2012,06,14,15,36,13.70
2012,06,14,15,37,13.70
2012,06,14,15,38,13.80
2012,06,14,15,39,13.80
2012,06,14,15,40,13.70
2012,06,14,15,41,13.70
2012,06,14,15,42,13.70
2012,06,14,15,43,13.70
2012,06,14,15,44,13.70
2012,06,14,15,45,13.70
2012,06,14,15,46,13.70
2012,06,14,15,47,13.70
2012,06,14,15,48,13.70
2012,06,14,15,49,13.70
2012,06,14,15,50,13.60
2012,06,14,15,51,13.60
2012,06,14,15,52,13.60
2012,06,14,15,53,13.60
2012,06,14,15,54,13.70
2012,06,14,15,55,13.80
2012,06,14,15,56,13.80
2012,06,14,15,57,13.70
2012,06,14,15,58,13.70
2012,06,14,15,59,13.70
2012,06,14,16,00,13.70
2012,06,14,16,01,13.70
2012,06,14,16,02,13.60
2012,06,14,16,03,13.60
2012,06,14,16,04,13.60
2012,06,14,16,05,13.50
2012,06,14,16,06,13.50
2012,06,14,16,07,13.50
2012,06,14,16,08,13.50
2012,06,14,16,09,13.60
2012,06,14,16,10,13.70
2012,06,14,16,11,13.70
2012,06,14,16,12,13.60
2012,06,14,16,13,13.60
2012,06,14,16,14,13.60
2012,06,14,16,15,13.60
2012,06,14,16,16,13.60
2012,06,14,16,17,13.60
2012,06,14,16,18,13.50
2012,06,14,16,19,13.60
2012,06,14,16,20,13.60
2012,06,14,16,21,13.70
2012,06,14,16,22,13.70
2012,06,14,16,23,13.70
2012,06,14,16,24,13.70
2012,06,14,16,25,13.70
2012,06,14,16,26,13.70
2012,06,14,16,27,13.70
2012,06,14,16,28,13.70
2012,06,14,16,29,13.90
2012,06,14,16,30,14.10
2012,06,14,16,31,14.20
2012,06,14,16,32,14.40
2012,06,14,16,33,14.60
2012,06,14,16,34,14.70
2012,06,14,16,35,14.80
2012,06,14,16,36,14.90
2012,06,14,16,37,14.90
2012,06,14,16,38,14.80
2012,06,14,16,39,14.80
2012,06,14,16,40,14.80
2012,06,14,16,41,14.70
2012,06,14,16,42,14.60
2012,06,14,16,43,14.50
2012,06,14,16,44,14.40
2012,06,14,16,45,14.30
2012,06,14,16,46,14.40
2012,06,14,16,47,14.40
2012,06,14,16,48,14.40
2012,06,14,16,49,14.50
2012,06,14,16,50,14.50
2012,06,14,16,51,14.60
2012,06,14,16,52,14.60
2012,06,14,16,53,14.60
2012,06,14,16,54,14.60
2012,06,14,16,55,14.60
2012,06,14,16,56,14.60
2012,06,14,16,57,14.60
2012,06,14,16,58,14.50
2012,06,14,16,59,14.50
2012,06,14,17,00,14.50
2012,06,14,17,01,14.30
2012,06,14,17,02,14.20
2012,06,14,17,03,14.20
2012,06,14,17,04,14.20
2012,06,14,17,05,14.20
2012,06,14,17,06,14.20
2012,06,14,17,07,14.20
2012,06,14,17,08,14.10
2012,06,14,17,09,14.10
2012,06,14,17,10,14.00
2012,06,14,17,11,14.00
2012,06,14,17,12,14.00
2012,06,14,17,13,13.90
2012,06,14,17,14,13.90
2012,06,14,17,15,13.80
2012,06,14,17,16,13.70
2012,06,14,17,17,13.70
2012,06,14,17,18,13.70
2012,06,14,17,19,13.70
2012,06,14,17,20,13.80
2012,06,14,17,21,13.90
2012,06,14,17,22,14.00
2012,06,14,17,23,14.10
2012,06,14,17,24,14.10
2012,06,14,17,25,14.20
2012,06,14,17,26,14.20
2012,06,14,17,27,14.20
2012,06,14,17,28,14.10
2012,06,14,17,29,14.10
2012,06,14,17,30,14.20
2012,06,14,17,31,14.20
2012,06,14,17,32,14.30
2012,06,14,17,33,14.30
2012,06,14,17,34,14.40
2012,06,14,17,35,14.40
2012,06,14,17,36,14.50
2012,06,14,17,37,14.50
2012,06,14,17,38,14.50
2012,06,14,17,39,14.60
2012,06,14,17,40,14.70
2012,06,14,17,41,14.60
2012,06,14,17,42,14.60
2012,06,14,17,43,14.60
2012,06,14,17,44,14.60
2012,06,14,17,45,14.70
2012,06,14,17,46,14.80
2012,06,14,17,47,14.80
2012,06,14,17,48,14.80
2012,06,14,17,49,14.90
2012,06,14,17,50,15.00
2012,06,14,17,51,15.10
2012,06,14,17,52,15.10
2012,06,14,17,53,15.00
2012,06,14,17,54,14.90
2012,06,14,17,55,14.80
2012,06,14,17,56,14.80
2012,06,14,17,57,14.80
2012,06,14,17,58,14.80
2012,06,14,17,59,14.90
2012,06,14,18,00,14.90
2012,06,14,18,01,14.90
2012,06,14,18,02,15.00
2012,06,14,18,03,15.00
2012,06,14,18,04,15.00
2012,06,14,18,05,15.00
2012,06,14,18,06,15.00
2012,06,14,18,07,15.00
2012,06,14,18,08,15.10
2012,06,14,18,09,15.10
2012,06,14,18,10,15.10
2012,06,14,18,11,15.10
2012,06,14,18,12,15.10
2012,06,14,18,13,15.20
2012,06,14,18,14,15.30
2012,06,14,18,15,15.30
2012,06,14,18,16,15.30
2012,06,14,18,17,15.40
2012,06,14,18,18,15.40
2012,06,14,18,19,15.40
2012,06,14,18,20,15.40
2012,06,14,18,21,15.30
2012,06,14,18,22,15.40
2012,06,14,18,23,15.30
2012,06,14,18,24,15.30
2012,06,14,18,25,15.30
2012,06,14,18,26,15.30
2012,06,14,18,27,15.30
2012,06,14,18,28,15.30
2012,06,14,18,29,15.30
2012,06,14,18,30,15.30
2012,06,14,18,31,15.30
2012,06,14,18,32,15.30
2012,06,14,18,33,15.30
2012,06,14,18,34,15.10
2012,06,14,18,35,15.00
2012,06,14,18,36,14.90
2012,06,14,18,37,14.70
2012,06,14,18,38,14.60
2012,06,14,18,39,14.50
2012,06,14,18,40,14.40
2012,06,14,18,41,14.30
2012,06,14,18,42,14.30
2012,06,14,18,43,14.30
2012,06,14,18,44,14.30
2012,06,14,18,45,14.30
2012,06,14,18,46,14.30
2012,06,14,18,47,14.30
2012,06,14,18,48,14.20
2012,06,14,18,49,14.20
2012,06,14,18,50,14.30
2012,06,14,18,51,14.40
2012,06,14,18,52,14.30
2012,06,14,18,53,14.30
2012,06,14,18,54,14.20
2012,06,14,18,55,14.20
2012,06,14,18,56,14.20
2012,06,14,18,57,14.20
2012,06,14,18,58,14.20
2012,06,14,18,59,14.20
2012,06,14,19,00,14.10
2012,06,14,19,01,14.10
2012,06,14,19,02,14.10
2012,06,14,19,03,14.10
2012,06,14,19,04,14.10
2012,06,14,19,05,14.10
2012,06,14,19,06,14.10
2012,06,14,19,07,14.10
2012,06,14,19,08,14.10
2012,06,14,19,09,14.10
2012,06,14,19,10,14.20
2012,06,14,19,11,14.20
2012,06,14,19,12,14.20
2012,06,14,19,13,14.20
2012,06,14,19,14,14.20
2012,06,14,19,15,14.20
2012,06,14,19,16,14.20
2012,06,14,19,17,14.20
2012,06,14,19,18,14.10
2012,06,14,19,19,14.00
2012,06,14,19,20,14.00
2012,06,14,19,21,14.00
2012,06,14,19,22,14.00
2012,06,14,19,23,14.00
2012,06,14,19,24,13.90
2012,06,14,19,25,13.90
2012,06,14,19,26,13.80
2012,06,14,19,27,13.90
2012,06,14,19,28,13.80
2012,06,14,19,29,13.80
2012,06,14,19,30,13.90
2012,06,14,19,31,13.80
2012,06,14,19,32,13.80
2012,06,14,19,33,13.80
2012,06,14,19,34,13.80
2012,06,14,19,35,13.80
2012,06,14,19,36,13.80
2012,06,14,19,37,13.80
2012,06,14,19,38,13.70
2012,06,14,19,39,13.70
2012,06,14,19,40,13.70
2012,06,14,19,41,13.60
2012,06,14,19,42,13.60
2012,06,14,19,43,13.50
2012,06,14,19,44,13.40
2012,06,14,19,45,13.30
2012,06,14,19,46,13.30
2012,06,14,19,47,13.20
2012,06,14,19,48,13.10
2012,06,14,19,49,13.10
2012,06,14,19,50,13.00
2012,06,14,19,51,13.00
2012,06,14,19,52,12.90
2012,06,14,19,53,12.90
2012,06,14,19,54,12.90
2012,06,14,19,55,12.90
2012,06,14,19,56,12.90
2012,06,14,19,57,12.90
2012,06,14,19,58,12.90
2012,06,14,19,59,12.90
2012,06,14,20,00,12.80
2012,06,14,20,01,12.80
2012,06,14,20,02,12.90
2012,06,14,20,03,12.90
2012,06,14,20,04,12.90
2012,06,14,20,05,12.90
2012,06,14,20,06,12.90
2012,06,14,20,07,12.90
2012,06,14,20,08,12.90
2012,06,14,20,09,12.90
2012,06,14,20,10,12.90
2012,06,14,20,11,12.80
2012,06,14,20,12,12.80
2012,06,14,20,13,12.80
2012,06,14,20,14,12.80
2012,06,14,20,15,12.80
2012,06,14,20,16,12.80
2012,06,14,20,17,12.80
2012,06,14,20,18,12.80
2012,06,14,20,19,12.80
2012,06,14,20,20,12.70
2012,06,14,20,21,12.70
2012,06,14,20,22,12.70
2012,06,14,20,23,12.70
2012,06,14,20,24,12.70
2012,06,14,20,25,12.70
2012,06,14,20,26,12.70
2012,06,14,20,27,12.70
2012,06,14,20,28,12.70
2012,06,14,20,29,12.60
2012,06,14,20,30,12.60
2012,06,14,20,31,12.60
2012,06,14,20,32,12.60
2012,06,14,20,33,12.60
2012,06,14,20,34,12.60
2012,06,14,20,35,12.60
2012,06,14,20,36,12.60
2012,06,14,20,37,12.60
2012,06,14,20,38,12.60
2012,06,14,20,39,12.60
2012,06,14,20,40,12.60
2012,06,14,20,41,12.60
2012,06,14,20,42,12.50
2012,06,14,20,43,12.50
2012,06,14,20,44,12.50
2012,06,14,20,45,12.40
2012,06,14,20,46,12.30
2012,06,14,20,47,12.30
2012,06,14,20,48,12.20
2012,06,14,20,49,12.10
2012,06,14,20,50,12.00
2012,06,14,20,51,11.90
2012,06,14,20,52,11.90
2012,06,14,20,53,11.80
2012,06,14,20,54,11.80
2012,06,14,20,55,11.70
2012,06,14,20,56,11.70
2012,06,14,20,57,11.60
2012,06,14,20,58,11.60
2012,06,14,20,59,11.60
2012,06,14,21,00,11.60
2012,06,14,21,01,11.50
2012,06,14,21,02,11.40
2012,06,14,21,03,11.40
2012,06,14,21,04,11.40
2012,06,14,21,05,11.40
2012,06,14,21,06,11.40
2012,06,14,21,07,11.30
2012,06,14,21,08,11.30
2012,06,14,21,09,11.30
2012,06,14,21,10,11.30
2012,06,14,21,11,11.30
2012,06,14,21,12,11.20
2012,06,14,21,13,11.20
2012,06,14,21,14,11.20
2012,06,14,21,15,11.10
2012,06,14,21,16,11.10
2012,06,14,21,17,11.10
2012,06,14,21,18,11.10
2012,06,14,21,19,11.10
2012,06,14,21,20,11.10
2012,06,14,21,21,11.10
2012,06,14,21,22,11.00
2012,06,14,21,23,10.90
2012,06,14,21,24,10.90
2012,06,14,21,25,10.90
2012,06,14,21,26,10.90
2012,06,14,21,27,10.90
2012,06,14,21,28,10.80
2012,06,14,21,29,10.80
2012,06,14,21,30,10.70
2012,06,14,21,31,10.70
2012,06,14,21,32,10.70
2012,06,14,21,33,10.60
2012,06,14,21,34,10.60
2012,06,14,21,35,10.60
2012,06,14,21,36,10.60
2012,06,14,21,37,10.60
2012,06,14,21,38,10.60
2012,06,14,21,39,10.60
2012,06,14,21,40,10.60
2012,06,14,21,41,10.60
2012,06,14,21,42,10.40
2012,06,14,21,43,10.40
2012,06,14,21,44,10.40
2012,06,14,21,45,10.30
2012,06,14,21,46,10.30
2012,06,14,21,47,10.20
2012,06,14,21,48,10.20
2012,06,14,21,49,10.20
2012,06,14,21,50,10.20
2012,06,14,21,51,10.10
2012,06,14,21,52,10.10
2012,06,14,21,53,10.10
2012,06,14,21,54,10.00
2012,06,14,21,55,9.90
2012,06,14,21,56,9.90
2012,06,14,21,57,9.90
2012,06,14,21,58,9.90
2012,06,14,21,59,9.80
2012,06,14,22,00,9.80
2012,06,14,22,01,9.70
2012,06,14,22,02,9.70
2012,06,14,22,03,9.70
2012,06,14,22,04,9.60
2012,06,14,22,05,9.60
2012,06,14,22,06,9.60
2012,06,14,22,07,9.50
2012,06,14,22,08,9.50
2012,06,14,22,09,9.50
2012,06,14,22,10,9.40
2012,06,14,22,11,9.40
2012,06,14,22,12,9.40
2012,06,14,22,13,9.40
2012,06,14,22,14,9.30
2012,06,14,22,15,9.30
2012,06,14,22,16,9.20
2012,06,14,22,17,9.20
2012,06,14,22,18,9.20
2012,06,14,22,19,9.20
2012,06,14,22,20,9.20
2012,06,14,22,21,9.20
2012,06,14,22,22,9.20
2012,06,14,22,23,9.20
2012,06,14,22,24,9.10
2012,06,14,22,25,9.10
2012,06,14,22,26,9.10
2012,06,14,22,27,9.10
2012,06,14,22,28,9.10
2012,06,14,22,29,9.10
2012,06,14,22,30,9.10
2012,06,14,22,31,9.10
2012,06,14,22,32,9.00
2012,06,14,22,33,9.00
2012,06,14,22,34,9.00
2012,06,14,22,35,9.00
2012,06,14,22,36,8.90
2012,06,14,22,37,8.90
2012,06,14,22,38,8.90
2012,06,14,22,39,8.90
2012,06,14,22,40,8.90
2012,06,14,22,41,8.90
2012,06,14,22,42,8.90
2012,06,14,22,43,8.90
2012,06,14,22,44,8.90
2012,06,14,22,45,8.80
2012,06,14,22,46,8.80
2012,06,14,22,47,8.80
2012,06,14,22,48,8.80
2012,06,14,22,49,8.80
2012,06,14,22,50,8.70
2012,06,14,22,51,8.70
2012,06,14,22,52,8.70
2012,06,14,22,53,8.70
2012,06,14,22,54,8.70
2012,06,14,22,55,8.70
2012,06,14,22,56,8.70
2012,06,14,22,57,8.60
2012,06,14,22,58,8.60
2012,06,14,22,59,8.60
2012,06,14,23,00,8.50
2012,06,14,23,01,8.50
2012,06,14,23,02,8.40
2012,06,14,23,03,8.40
2012,06,14,23,04,8.30
2012,06,14,23,05,8.30
2012,06,14,23,06,8.20
2012,06,14,23,07,8.20
2012,06,14,23,08,8.10
2012,06,14,23,09,8.10
2012,06,14,23,10,8.00
2012,06,14,23,11,7.90
2012,06,14,23,12,7.90
2012,06,14,23,13,7.90
2012,06,14,23,14,7.80
2012,06,14,23,15,7.80
2012,06,14,23,16,7.80
2012,06,14,23,17,7.80
2012,06,14,23,18,7.70
2012,06,14,23,19,7.70
2012,06,14,23,20,7.70
2012,06,14,23,21,7.60
2012,06,14,23,22,7.60
2012,06,14,23,23,7.60
2012,06,14,23,24,7.60
2012,06,14,23,25,7.60
2012,06,14,23,26,7.50
2012,06,14,23,27,7.50
2012,06,14,23,28,7.50
2012,06,14,23,29,7.50
2012,06,14,23,30,7.50
2012,06,14,23,31,7.50
2012,06,14,23,32,7.50
2012,06,14,23,33,7.50
2012,06,14,23,34,7.50
2012,06,14,23,35,7.50
2012,06,14,23,36,7.40
2012,06,14,23,37,7.40
2012,06,14,23,38,7.40
2012,06,14,23,39,7.40
2012,06,14,23,40,7.40
2012,06,14,23,41,7.30
2012,06,14,23,42,7.30
2012,06,14,23,43,7.30
2012,06,14,23,44,7.30
2012,06,14,23,45,7.30
2012,06,14,23,46,7.30
2012,06,14,23,47,7.30
2012,06,14,23,48,7.30
2012,06,14,23,49,7.30
2012,06,14,23,50,7.20
2012,06,14,23,51,7.20
2012,06,14,23,52,7.20
2012,06,14,23,53,7.20
2012,06,14,23,54,7.10
2012,06,14,23,55,7.10
2012,06,14,23,56,7.10
2012,06,14,23,57,7.10
2012,06,14,23,58,7.00
2012,06,14,23,59,7.00
